Theta_e
310 310 310 310 310 310 310 310 310 310 310 310 310 311 311 311 311 312 312 312 313 313 313 313 314 314 314 314 314 314 314 314 314 313 314 315 314 315 314 313 313 314 316 316 315 316 315 315 315 315 315 316 316 316 317 317 318 318 319 319 318 318 319 318 318 318 317 316 317 317 315 315 316 316 315 314 315 315 316 316 316 316 317 317 317 317 316 316
310 310 310 310 310 310 310 310 310 310 310 310 310 310 311 311 311 312 312 312 313 313 313 313 313 314 313 314 314 314 314 313 313 313 314 315 314 315 315 314 314 313 315 316 315 315 315 315 315 315 315 316 317 317 318 318 318 319 320 318 318 319 319 318 318 318 316 316 317 317 314 314 315 316 314 314 316 316 316 317 317 316 316 316 316 316 316 316
309 309 309 309 310 310 310 310 310 310 310 310 310 310 311 311 311 311 312 312 312 313 313 313 313 313 313 313 313 313 313 313 313 313 314 315 314 314 315 315 314 313 314 315 315 315 314 314 314 315 315 316 317 317 318 318 318 320 319 318 319 320 318 316 316 317 316 316 317 316 315 313 314 314 313 315 316 316 316 317 318 317 317 316 316 316 316 316
309 309 309 309 309 310 310 310 310 310 310 310 310 310 311 311 311 311 311 312 312 312 312 313 313 313 313 313 313 313 313 313 314 314 315 316 314 313 315 315 314 314 314 314 315 315 314 314 314 314 315 316 316 316 318 319 319 319 318 319 320 319 318 317 316 316 316 315 315 315 314 314 315 314 313 315 315 316 318 318 318 317 317 317 316 316 315 315
309 309 309 309 309 309 310 310 310 310 310 310 310 310 310 311 311 311 311 311 312 312 312 312 312 312 312 312 312 312 312 314 315 315 316 315 314 313 314 315 315 314 314 314 315 315 314 314 314 314 315 316 316 316 318 318 318 317 318 319 320 317 317 318 317 316 316 314 314 314 314 315 315 314 314 314 315 317 318 318 317 317 316 316 316 315 315 315
309 309 309 309 309 309 310 310 310 310 310 310 310 310 311 311 311 311 311 311 311 312 312 312 312 312 312 312 312 312 313 314 315 314 315 314 314 314 314 315 315 314 314 314 315 315 315 314 314 315 315 316 317 316 316 317 316 317 318 319 319 318 317 318 317 316 316 314 314 315 315 315 314 315 314 314 315 316 316 317 317 316 316 315 315 315 315 315
309 309 309 310 309 310 310 310 310 310 310 311 311 311 311 311 311 312 312 312 312 312 312 312 313 313 313 313 313 313 313 315 315 315 315 314 315 314 315 315 315 314 314 315 315 315 315 315 315 315 316 316 316 316 315 316 316 316 317 318 317 317 317 317 316 315 315 314 315 315 315 315 315 316 315 314 315 315 315 315 315 315 315 315 315 315 314 314
310 310 310 310 310 311 311 311 311 311 312 312 312 312 312 312 312 313 313 313 313 313 313 313 313 313 314 313 313 312 312 315 316 315 315 315 315 315 315 315 315 314 314 315 315 315 315 315 315 315 315 316 315 316 315 315 316 316 316 317 316 315 316 316 315 314 314 314 315 314 314 315 316 315 314 314 315 315 315 315 315 314 314 314 314 314 314 314
311 312 312 312 312 312 312 312 312 312 313 313 313 313 313 313 314 314 314 314 314 314 314 314 313 313 313 313 312 312 313 315 316 315 315 315 315 315 315 315 315 315 315 315 315 315 315 315 315 314 315 315 314 315 314 314 316 316 316 317 316 315 315 315 314 313 314 314 314 313 314 315 315 314 314 314 315 314 314 314 314 314 314 314 314 314 314 314
314 314 315 315 315 315 315 315 315 315 315 315 315 315 316 316 316 316 316 316 316 316 316 316 316 315 315 315 312 312 314 315 315 315 315 315 315 315 315 315 315 315 315 315 314 315 315 315 315 314 314 314 314 314 313 313 314 314 314 314 314 314 314 313 313 313 312 312 312 312 314 315 314 312 314 315 315 314 314 314 314 313 313 314 314 314 314 314
318 318 319 319 319 319 319 319 319 319 319 320 320 320 320 320 320 320 321 321 321 321 321 321 321 320 320 319 316 315 315 315 315 315 314 314 313 314 314 314 314 314 314 314 314 314 315 315 315 314 314 313 313 312 311 313 313 312 311 312 313 314 313 313 312 312 312 312 312 312 313 314 313 311 313 315 314 314 313 313 313 313 313 314 313 314 314 314
319 320 320 320 320 320 320 320 320 320 320 321 321 321 321 322 322 321 321 321 321 321 321 322 322 323 323 321 320 319 319 318 318 317 316 315 313 313 313 314 314 314 314 314 314 314 314 315 315 314 313 313 313 312 311 311 311 311 311 312 313 313 313 314 314 312 311 311 311 311 311 312 312 312 313 314 314 314 313 312 313 313 313 313 314 314 314 314
316 316 316 316 316 315 316 315 315 315 316 316 316 316 317 317 316 316 316 316 316 316 316 316 317 318 318 319 321 321 321 320 319 319 319 318 315 313 312 313 313 313 314 314 314 314 314 315 314 313 312 312 312 312 311 310 310 312 311 311 312 313 313 313 313 310 309 311 310 310 312 313 314 314 314 314 314 313 312 312 312 313 313 313 314 314 314 314
312 312 312 312 312 312 311 311 312 312 312 312 312 312 313 313 313 313 313 313 313 313 313 313 312 312 313 315 318 317 318 318 318 319 319 319 316 314 312 312 312 313 313 313 313 314 314 314 313 312 312 312 312 311 311 311 311 312 311 311 312 313 314 313 311 309 309 310 310 310 311 313 314 315 315 314 313 312 311 312 313 312 313 313 313 313 313 314
311 311 311 311 311 311 311 312 312 313 313 313 313 313 313 313 313 313 313 314 313 313 313 312 311 310 311 313 315 315 315 315 316 317 317 317 316 313 312 312 311 312 312 313 313 313 313 312 311 312 312 311 311 311 312 312 311 311 312 313 313 312 314 314 312 311 311 310 309 310 312 313 313 315 315 314 312 311 311 312 312 313 313 313 313 312 313 314
312 312 312 312 312 313 313 314 314 315 315 315 315 314 314 314 314 314 314 314 313 313 313 312 311 311 311 313 314 315 315 315 315 315 315 316 315 314 313 312 312 312 312 313 313 312 312 310 310 311 311 311 312 312 312 313 313 313 312 314 315 314 313 314 313 313 312 310 309 310 311 312 313 314 314 313 312 311 311 312 312 313 313 313 313 313 313 313
314 314 314 314 315 315 315 315 316 316 316 315 315 315 315 316 315 314 314 314 314 313 312 312 311 311 312 314 315 315 315 315 314 314 315 314 314 314 313 313 312 312 312 312 312 311 311 310 310 311 311 312 311 312 314 314 315 314 314 313 314 313 313 312 313 314 311 309 310 310 310 311 312 313 313 312 312 312 312 312 312 313 313 313 313 313 313 312
315 315 315 315 316 316 316 316 316 316 317 317 317 318 318 317 316 316 315 314 313 313 312 312 312 313 315 315 314 315 315 314 314 314 314 314 314 313 313 313 312 312 312 312 312 311 311 311 311 312 313 312 311 312 315 315 316 315 315 314 314 313 312 312 312 313 312 310 311 311 310 311 311 312 312 312 312 312 312 312 312 312 313 313 313 313 313 313
316 317 318 318 319 319 319 318 319 318 319 320 321 321 320 318 317 317 315 314 313 314 315 313 313 315 317 315 314 315 314 314 314 314 314 314 314 314 313 313 313 312 312 313 312 312 312 312 312 314 314 314 313 313 315 316 315 314 314 313 313 313 312 312 312 313 311 310 311 311 311 312 312 312 312 313 313 312 313 312 313 313 313 313 313 313 313 313
320 321 322 322 322 322 322 322 322 323 323 323 323 323 321 320 319 317 315 316 317 319 319 318 316 317 318 318 317 317 316 316 315 314 314 314 314 313 313 312 312 312 313 314 314 311 311 313 314 315 315 316 315 314 314 314 313 311 312 313 313 313 313 313 313 313 311 309 311 311 312 312 312 312 313 313 313 313 314 314 313 313 313 314 314 314 313 312
322 323 323 324 324 323 324 324 324 324 324 324 323 324 323 320 320 319 318 320 322 322 322 322 320 319 320 321 320 318 316 316 315 314 314 313 313 313 313 312 312 313 312 313 313 310 310 314 314 315 315 314 313 313 312 312 311 311 312 313 313 313 313 313 313 313 311 309 311 311 311 312 312 312 313 313 313 313 314 314 314 314 314 314 314 313 311 311
324 324 324 324 324 324 324 324 324 323 323 323 323 323 323 321 321 320 318 318 321 322 322 322 321 320 322 321 319 317 314 313 314 314 313 313 312 313 313 311 312 314 312 310 312 312 312 314 314 314 314 312 310 309 310 310 311 312 312 313 313 313 313 313 312 311 309 309 311 311 311 311 311 312 313 313 313 313 314 314 314 314 315 314 313 312 311 311
325 325 325 325 325 324 324 324 324 323 323 323 322 322 322 322 321 319 316 315 317 321 321 320 319 319 320 319 318 316 313 312 313 313 313 313 312 312 312 312 312 313 312 311 313 315 315 314 313 314 313 311 310 309 309 310 311 312 313 313 313 313 314 313 312 310 308 309 310 310 311 312 313 313 313 314 313 313 314 313 314 314 313 312 311 311 311 311
325 324 324 325 325 325 324 323 323 323 323 323 322 322 321 321 321 318 316 314 315 318 319 317 316 316 316 316 315 315 313 313 313 313 313 313 312 312 313 313 312 312 312 312 313 315 316 313 310 311 311 310 311 311 310 311 312 313 313 313 313 314 314 313 312 311 310 311 310 310 313 314 315 315 315 314 313 312 314 314 314 313 311 311 311 310 310 311
322 323 323 323 324 324 323 322 321 322 322 322 322 322 321 320 319 316 315 316 317 317 316 314 313 314 313 312 312 312 312 312 312 312 312 312 312 312 312 312 311 312 313 312 312 313 315 312 309 310 311 310 311 311 312 312 313 314 314 313 313 313 313 313 313 312 312 313 311 310 315 316 315 315 315 316 314 314 315 315 313 312 311 311 311 310 310 311
321 323 324 323 322 322 322 321 320 321 321 321 321 321 320 320 318 315 314 317 320 319 316 314 312 312 311 310 310 311 312 312 311 310 311 311 311 311 311 311 310 311 312 311 311 312 312 309 308 311 312 311 311 311 313 313 312 314 315 314 312 312 313 313 313 312 313 314 311 310 313 315 315 315 315 315 314 315 317 316 314 312 311 311 310 310 311 310
321 322 323 322 321 320 321 321 321 321 322 321 321 320 321 320 318 315 315 320 323 318 315 313 311 311 310 309 309 311 313 313 310 310 310 311 311 310 311 311 310 310 308 310 312 312 311 309 308 310 312 312 312 312 313 312 312 314 314 313 313 312 313 312 311 312 312 312 311 310 312 314 315 315 314 314 314 316 317 316 314 311 310 310 310 310 310 309
321 321 321 321 321 320 321 322 322 322 324 323 321 320 320 320 318 315 318 326 324 316 313 311 310 311 310 309 309 309 310 310 310 311 310 311 311 310 311 311 310 310 308 310 314 312 310 311 311 311 311 311 312 314 314 311 312 313 310 309 310 310 311 311 311 311 310 310 312 312 312 314 317 315 312 312 314 316 317 314 311 310 310 310 310 310 309 308
320 320 320 320 321 320 320 322 322 323 325 324 322 321 321 319 317 315 320 325 322 314 313 311 310 310 309 309 309 308 308 308 310 310 310 311 311 310 310 310 309 310 308 309 313 313 310 310 310 312 312 312 313 313 312 312 312 311 308 309 310 309 309 309 310 311 310 311 314 313 312 315 318 317 314 313 313 315 315 311 309 310 310 309 310 309 307 306
319 319 319 318 319 320 319 321 321 322 324 324 322 322 321 319 316 318 323 324 320 316 313 311 311 310 309 310 309 308 308 308 309 310 310 310 310 309 309 308 308 309 309 308 311 312 309 306 307 310 312 311 312 309 307 311 311 308 309 311 311 310 308 308 309 310 311 315 316 314 314 315 318 318 316 315 314 313 313 311 309 309 309 309 308 307 306 305
318 318 318 317 317 318 319 319 320 321 322 323 322 322 321 320 319 321 324 320 317 317 313 311 311 309 310 312 311 310 308 308 308 310 310 310 310 310 309 310 309 310 311 310 311 311 308 307 308 309 309 308 310 309 305 306 306 308 310 311 312 312 311 311 310 310 314 319 316 312 313 314 317 317 314 313 313 311 311 311 311 310 309 308 307 306 304 304
317 317 317 317 317 317 317 318 319 320 321 321 322 321 320 321 321 322 321 318 319 320 315 312 311 310 311 312 313 313 311 310 308 309 311 311 311 311 311 313 313 314 315 314 314 314 311 311 310 309 308 307 310 311 307 306 306 309 310 310 313 315 316 317 316 314 317 318 312 308 311 313 315 316 314 314 316 313 311 311 310 309 308 307 306 304 303 302
316 316 316 316 316 316 317 317 317 318 319 320 320 320 319 320 322 321 320 320 320 318 315 314 312 311 312 314 317 315 312 314 311 308 312 312 312 313 314 314 313 315 317 315 315 316 316 314 310 309 310 309 310 311 312 311 308 309 310 312 315 317 318 320 319 317 318 316 309 306 310 313 314 315 314 314 315 312 310 308 307 307 307 306 304 303 301 301
314 314 314 313 314 315 315 316 316 317 318 319 320 320 320 321 321 320 320 321 320 317 316 316 314 313 313 315 318 316 314 317 313 309 311 312 312 315 316 314 311 312 315 314 314 316 318 317 313 313 314 310 309 312 315 315 310 308 311 312 315 317 319 320 321 320 321 320 312 309 312 315 316 315 312 312 314 311 308 306 305 306 305 304 302 301 300 301
312 312 312 311 311 311 312 315 316 317 318 319 320 321 320 321 320 319 319 320 321 320 318 317 317 317 316 316 317 315 314 317 314 310 311 312 314 316 316 317 313 311 314 315 316 316 316 318 316 313 311 309 310 312 313 314 312 309 310 311 313 315 317 318 319 319 319 319 316 313 315 316 316 315 313 314 313 309 306 306 305 305 304 302 301 299 299 299
310 310 309 309 308 308 310 313 315 317 319 320 320 320 319 319 319 319 319 317 318 321 320 318 318 319 318 317 316 314 313 315 314 312 312 312 315 315 317 319 315 311 314 316 318 318 315 317 317 311 307 308 310 311 311 312 313 310 308 311 313 314 316 315 316 317 316 317 318 317 317 316 316 317 314 312 311 307 306 306 305 305 303 301 299 298 297 297
309 309 308 308 307 307 309 312 315 318 319 319 319 319 318 318 318 318 318 315 315 318 319 318 318 318 318 317 316 314 313 314 313 313 314 313 314 315 316 317 314 312 313 315 318 319 317 318 317 313 312 309 305 307 310 309 310 310 310 313 313 312 312 312 314 316 316 317 319 320 319 317 318 317 312 310 311 309 307 305 304 303 301 300 298 297 296 295
308 308 308 308 308 307 308 311 315 318 319 319 319 319 318 318 317 316 316 315 314 318 319 318 317 318 318 316 316 314 313 314 314 314 316 314 314 315 316 316 313 311 311 312 315 317 316 317 317 315 315 310 304 306 310 308 308 310 310 310 311 313 313 312 314 315 317 318 318 318 318 317 318 317 314 314 313 311 307 304 302 300 300 299 297 296 295 294
307 307 307 308 308 307 307 311 315 318 318 319 319 318 317 317 316 315 315 315 316 318 318 317 317 318 318 318 318 317 315 315 315 314 315 315 314 314 314 315 314 309 307 309 312 314 314 315 318 316 313 309 307 308 311 311 309 307 307 308 309 311 313 313 313 314 316 318 318 318 319 318 317 317 316 314 312 310 308 303 300 298 298 297 296 295 294 294
305 306 307 308 309 307 308 312 316 317 318 319 318 317 316 317 316 315 315 315 316 316 317 318 318 317 318 319 319 318 317 317 316 315 316 316 316 315 313 313 313 310 308 309 311 312 312 313 315 316 313 311 310 311 312 313 311 309 309 309 309 309 310 311 312 313 315 317 317 319 319 318 318 316 314 311 308 307 306 302 299 297 296 295 294 294 293 293
302 306 308 309 310 309 309 314 317 316 318 319 317 316 316 315 315 314 315 315 315 315 314 317 318 316 317 318 317 317 318 318 316 316 317 316 316 315 313 311 311 311 311 313 312 311 312 313 314 315 314 313 313 313 312 313 313 312 310 311 311 311 311 312 314 314 314 315 316 318 317 319 318 314 310 307 305 304 303 300 298 296 295 295 294 293 293 292
302 306 309 310 311 310 310 315 316 315 317 318 316 316 315 315 315 314 314 314 315 315 313 315 317 316 316 316 315 316 318 317 316 316 316 316 315 313 312 310 310 311 312 314 314 312 310 311 313 313 313 313 314 314 312 311 312 312 312 312 312 312 311 313 315 316 315 314 315 315 316 319 316 308 305 303 301 301 300 299 297 296 295 294 293 293 292 292
302 306 309 311 311 310 311 315 316 315 316 316 315 315 315 315 315 314 313 314 315 315 314 315 315 314 315 315 314 315 315 315 315 315 315 315 314 311 309 309 310 310 311 313 314 312 308 309 312 313 313 313 313 313 312 310 310 312 313 312 312 312 313 314 314 314 314 315 316 315 316 318 313 304 301 300 298 298 298 297 297 296 294 294 293 292 292 293
303 307 311 312 311 311 312 313 314 315 315 314 314 315 315 315 314 314 313 314 315 314 314 315 314 313 314 313 313 314 314 314 314 313 314 314 313 308 307 309 309 308 310 311 312 311 310 311 313 314 315 314 314 314 313 311 310 311 312 311 312 312 313 313 312 311 311 313 315 314 315 317 312 303 301 300 298 297 297 296 296 295 295 294 293 292 292 292
302 305 309 311 311 311 312 312 312 314 314 314 314 314 314 314 314 314 314 314 313 313 313 314 313 312 313 312 312 312 312 313 313 312 312 312 312 308 305 307 307 306 307 308 308 309 310 311 312 313 315 315 314 314 313 311 310 310 310 310 311 311 311 312 312 312 312 313 313 313 313 313 311 306 304 304 301 298 296 295 295 294 294 293 292 292 292 292
298 302 306 308 309 310 309 309 310 312 313 313 314 313 313 314 313 312 313 313 313 312 313 313 311 310 311 311 312 312 311 312 312 312 311 311 313 309 304 305 306 304 305 305 305 307 308 309 311 312 312 313 312 312 312 311 310 310 311 311 311 311 310 310 310 312 313 313 312 312 313 313 312 311 310 310 308 304 298 296 295 294 293 293 292 292 291 291
298 302 304 305 308 308 307 307 308 310 311 312 313 312 311 312 311 310 311 311 311 311 312 312 311 311 311 311 311 311 311 311 311 311 310 310 312 309 304 303 303 302 303 303 303 306 307 308 309 310 310 310 310 310 310 310 309 309 309 309 310 310 309 309 309 309 310 310 310 310 311 311 311 311 311 311 310 305 299 296 295 294 294 293 292 292 291 291
298 300 300 301 305 307 307 306 306 306 307 308 310 310 310 311 310 310 310 309 309 310 311 311 310 309 309 308 310 311 310 310 310 310 310 310 309 308 305 303 301 300 302 302 302 305 306 306 307 308 307 307 307 307 307 307 306 306 306 307 307 307 308 308 308 307 307 308 308 307 308 308 308 308 309 307 304 302 297 295 295 294 293 293 293 293 292 291
296 296 297 299 301 301 302 302 301 303 305 306 307 308 308 309 309 308 308 308 308 307 308 310 307 304 304 306 307 308 308 308 308 308 309 309 307 305 305 305 301 300 301 301 302 304 304 305 305 304 304 305 305 305 305 304 304 304 303 304 304 304 305 305 305 305 305 305 305 305 305 306 305 305 304 301 299 298 296 294 294 294 294 294 293 293 293 291
296 296 297 298 298 297 297 298 299 301 303 303 305 306 306 307 308 307 306 306 307 307 307 307 303 300 301 304 304 305 305 305 306 305 304 305 305 304 303 304 302 300 300 300 302 303 303 304 304 302 302 303 302 302 303 302 302 302 301 302 302 302 302 302 302 303 303 303 303 303 303 304 303 301 299 297 296 296 295 294 294 294 294 294 294 294 293 292
295 296 296 297 298 297 296 297 298 299 300 301 303 304 304 304 304 304 304 303 303 304 305 303 300 299 300 301 301 302 303 302 302 302 300 300 301 301 300 300 300 299 299 300 301 301 301 302 301 301 301 302 301 301 301 300 300 299 299 299 299 299 300 301 301 302 302 303 302 302 302 302 300 297 296 295 294 294 294 294 293 293 293 293 293 293 293 293
294 295 294 295 297 297 296 296 296 297 298 299 300 300 300 299 299 300 302 300 297 298 299 298 297 298 298 299 300 300 301 299 299 298 297 296 297 297 297 298 298 298 299 299 300 300 301 300 300 300 301 301 301 300 299 298 298 298 299 299 299 299 300 300 301 301 301 302 301 301 300 299 297 296 296 295 294 293 293 293 293 292 293 293 293 292 293 293
Wind_Speed
5 5 5 5 5 4 4 4 3 3 2 2 2 2 2 2 2 2 2 2 2 3 4 4 6 6 7 8 9 10 12 13 14 14 10 4 5 4 2 3 5 7 8 10 10 9 8 8 8 8 8 8 6 6 6 5 7 6 3 4 4 4 4 4 7 6 1 4 4 3 4 6 8 6 6 8 10 15 19 23 25 24 26 28 27 25 24 24
6 6 6 6 5 5 5 4 4 4 4 4 3 3 3 3 3 3 3 4 4 5 5 6 7 8 9 9 11 12 14 14 17 16 5 2 7 6 3 3 4 7 8 10 10 9 9 8 8 9 9 7 5 5 5 5 7 6 3 3 5 5 3 5 8 7 5 8 7 5 6 7 10 7 6 8 11 12 16 21 21 23 28 27 24 20 20 21
6 6 6 6 6 6 6 6 5 5 5 5 5 5 5 5 5 5 5 6 6 6 7 8 8 9 10 11 12 13 14 16 19 13 7 2 10 7 4 3 3 5 8 10 10 10 10 8 8 9 9 7 5 5 5 6 7 6 4 5 7 7 4 6 10 10 11 12 9 8 8 9 13 10 6 7 12 13 15 20 17 18 23 22 20 19 19 21
7 7 7 7 7 7 7 6 7 7 7 7 7 7 7 7 7 7 7 7 8 8 8 9 10 11 11 12 13 13 16 16 13 5 11 3 12 10 6 4 3 2 6 9 11 12 11 10 8 9 10 7 5 5 6 8 7 4 6 7 5 4 5 8 13 15 15 14 11 8 9 11 13 11 9 8 9 12 17 21 21 22 22 20 21 23 23 24
8 8 8 8 8 8 8 7 8 8 8 8 8 9 9 9 9 9 9 10 10 10 10 11 11 12 13 14 14 14 14 9 2 4 7 8 14 12 9 6 4 1 2 6 10 12 12 11 9 9 9 6 4 5 6 11 9 4 9 13 8 3 5 8 10 13 13 13 11 8 9 10 10 11 14 11 9 15 22 20 22 27 28 27 26 27 29 28
9 9 9 9 9 9 9 9 9 9 9 9 9 10 10 11 11 11 11 12 12 12 12 12 13 13 15 15 15 14 9 4 4 5 8 13 14 12 9 7 5 3 3 5 8 11 13 12 11 9 7 5 7 7 5 11 13 8 9 13 12 9 10 11 7 9 11 9 9 9 12 12 10 13 14 16 21 30 35 30 29 33 34 35 33 33 33 31
9 9 10 10 10 10 10 10 10 10 10 10 11 11 11 12 12 12 13 13 13 14 14 14 15 15 16 16 17 14 8 11 14 13 14 13 11 8 7 7 7 6 5 6 8 10 13 13 13 10 7 5 6 9 6 8 12 9 8 8 11 11 14 16 10 11 13 12 15 14 16 17 13 12 11 18 30 40 42 38 37 39 37 35 34 33 32 29
10 10 11 11 11 11 11 11 11 11 11 12 12 12 13 13 13 14 14 14 15 15 15 16 16 16 17 17 17 12 10 16 18 14 12 8 7 7 8 9 9 9 8 8 8 10 12 13 14 10 8 6 5 6 5 7 9 11 13 9 7 9 14 17 13 15 17 19 21 17 18 24 21 14 15 28 39 43 43 40 38 36 34 30 30 29 28 27
11 11 11 12 12 12 12 13 13 13 13 13 14 14 15 15 15 15 15 16 16 16 17 17 18 18 17 18 17 10 14 19 14 10 9 7 9 11 12 12 11 11 11 10 9 11 11 12 14 12 9 6 6 6 5 6 6 10 13 10 8 10 14 15 16 16 17 20 19 13 18 26 21 12 21 37 40 37 34 31 29 28 29 28 28 28 27 28
12 12 12 13 13 13 14 14 14 15 15 16 16 16 17 17 17 17 17 18 18 18 18 18 18 18 18 19 14 10 15 16 10 9 10 11 14 14 16 15 14 13 12 12 11 12 13 12 12 12 10 6 6 6 6 7 5 3 7 10 13 15 16 17 18 16 15 20 18 14 17 22 14 5 17 28 22 21 22 23 25 26 29 29 29 28 27 28
13 13 13 14 14 14 15 15 16 16 17 17 18 18 19 19 19 19 19 19 19 19 19 18 18 18 19 20 16 14 19 17 13 15 15 16 18 17 18 16 16 14 13 13 12 12 13 14 12 8 8 5 5 5 7 10 7 6 8 11 15 15 18 19 18 18 14 14 15 15 15 19 10 4 20 31 23 22 23 24 28 28 30 30 28 27 25 26
14 14 14 14 14 14 15 15 16 16 17 18 18 19 19 20 19 19 19 19 19 19 19 18 18 18 18 21 24 23 23 20 17 17 17 19 19 20 19 18 17 15 14 13 11 11 12 14 13 10 7 4 3 3 5 7 4 6 7 10 14 12 17 18 15 15 11 7 7 10 9 13 11 13 29 35 28 27 24 25 29 29 31 29 26 26 26 29
13 13 13 13 13 13 13 14 14 14 15 16 17 18 18 18 18 18 18 17 17 17 17 16 16 18 16 19 26 25 21 18 16 16 17 18 19 21 20 19 17 15 15 14 12 12 12 13 13 12 9 5 3 4 3 2 0 6 4 4 10 11 12 8 6 6 6 6 6 9 5 8 10 18 26 24 21 24 22 23 26 27 29 28 27 29 33 37
10 11 10 10 10 11 11 11 11 12 13 14 15 16 16 16 16 17 16 15 15 15 15 14 14 15 14 18 25 24 21 19 16 15 16 17 19 21 21 19 16 15 14 14 13 13 12 13 13 12 11 10 7 7 6 1 0 6 3 2 5 8 5 1 4 2 4 5 11 9 8 8 9 14 17 14 16 17 17 21 23 25 27 30 35 38 41 42
8 8 8 8 8 8 8 8 8 9 10 11 12 14 15 15 15 15 15 14 13 13 14 13 13 11 11 18 22 20 18 15 13 13 13 14 17 19 19 17 14 14 13 12 13 12 11 11 12 9 7 11 10 7 5 2 2 3 4 5 4 5 6 5 3 7 8 3 11 9 8 7 9 12 14 14 15 13 14 20 27 31 31 33 38 40 42 43
6 5 6 6 6 6 6 6 6 7 9 10 11 13 14 14 14 14 14 13 12 12 11 11 12 9 7 12 17 16 15 13 11 12 12 13 15 15 16 14 11 10 10 11 12 11 10 10 10 8 5 7 7 5 4 4 4 4 5 7 6 7 8 7 6 9 7 2 7 11 9 7 6 10 15 17 20 19 17 23 32 37 34 31 34 35 36 38
3 3 3 4 4 4 5 5 5 6 8 9 10 11 13 13 13 12 12 11 10 8 8 8 7 7 9 13 16 14 13 11 10 10 10 11 11 12 13 12 10 9 9 10 10 9 10 10 7 6 5 4 2 2 4 5 6 5 5 6 7 9 9 7 7 6 3 4 7 12 12 13 12 15 20 23 26 24 23 28 33 34 34 31 31 33 30 26
3 3 2 2 2 3 4 5 6 6 7 9 10 11 12 11 10 11 9 7 5 2 3 5 5 4 8 12 13 10 9 10 11 12 12 11 10 10 10 10 9 8 9 8 8 10 9 7 5 3 4 4 3 4 5 8 10 8 5 6 6 7 9 9 9 6 3 7 10 10 13 16 15 16 20 25 26 23 23 29 32 32 32 30 30 31 25 17
4 3 2 2 2 3 4 6 7 7 8 9 10 12 10 9 9 8 4 1 2 2 2 5 7 4 6 9 12 13 15 17 16 16 15 13 10 9 8 8 8 10 9 6 7 10 8 5 4 4 6 8 9 10 12 13 10 8 6 7 9 9 9 12 14 9 6 12 13 14 19 17 15 14 15 20 23 24 26 30 30 27 25 28 29 24 15 11
5 4 4 3 3 4 5 7 8 9 10 9 11 11 7 7 6 3 3 6 9 9 10 11 13 15 16 18 19 19 20 20 19 16 14 11 7 7 8 9 9 9 6 4 5 7 7 6 6 7 9 11 12 13 16 11 5 6 6 8 10 11 12 13 15 11 2 6 11 13 19 19 17 16 15 22 25 24 28 27 24 23 25 28 22 11 7 9
7 7 6 6 6 6 6 7 8 10 11 11 11 9 5 6 4 3 8 13 14 14 16 19 20 22 23 24 23 21 17 15 17 15 11 8 6 7 9 10 8 6 4 3 4 4 5 7 7 11 13 9 5 6 9 9 8 10 9 10 10 10 13 13 14 13 2 3 8 9 17 18 17 19 19 24 22 20 24 21 21 26 27 19 7 7 9 15
9 9 9 9 8 8 8 8 9 9 10 10 10 8 7 8 6 7 9 10 16 19 18 20 23 25 26 27 28 27 18 11 13 11 8 7 9 7 7 9 6 3 4 4 2 2 5 7 10 16 12 1 1 1 3 8 10 11 8 8 9 8 12 11 10 10 2 2 8 11 15 15 17 22 21 19 16 19 23 21 24 26 19 11 8 9 13 14
11 10 11 12 11 10 10 9 9 9 9 8 9 9 9 9 9 11 8 6 13 18 19 20 22 24 24 24 25 24 17 12 10 8 8 8 10 8 8 8 5 2 4 7 7 5 5 6 10 15 9 3 6 4 3 7 8 9 8 7 9 8 9 8 5 1 1 4 10 13 14 13 15 16 12 11 12 15 21 24 24 16 9 10 9 9 8 8
13 14 14 13 12 12 11 8 9 9 7 7 8 8 9 10 10 13 9 4 6 11 17 16 12 15 16 13 13 13 11 11 8 7 10 11 10 8 7 7 5 4 7 10 11 11 8 1 1 5 5 8 11 6 6 8 8 9 9 7 11 12 11 12 6 5 7 7 5 10 12 7 5 2 1 3 5 7 19 20 7 5 9 10 10 10 11 13
13 15 15 13 12 13 12 10 8 6 6 7 7 7 9 9 10 12 7 3 3 6 10 6 1 4 5 3 4 6 6 7 7 7 10 14 13 6 3 5 4 5 8 8 8 10 9 1 2 2 2 5 8 7 9 9 8 8 8 11 16 16 14 15 11 8 8 5 1 7 10 3 1 1 4 6 3 7 17 10 8 11 10 13 15 16 16 17
13 13 13 14 13 12 12 9 5 3 5 6 5 7 8 8 10 10 5 2 2 2 3 2 1 1 2 1 1 6 5 3 5 8 10 13 13 7 2 4 3 3 2 4 4 5 4 1 1 3 3 4 5 8 9 8 8 8 3 6 12 13 13 12 9 6 5 4 1 2 6 6 4 4 6 6 6 11 14 3 10 8 8 12 15 18 19 19
14 14 15 15 15 13 10 8 5 3 5 5 4 6 7 8 9 8 4 3 3 1 2 2 2 1 1 2 5 6 3 2 2 5 10 12 11 8 5 3 2 1 3 2 2 2 3 2 2 2 5 5 6 8 6 9 7 5 2 2 4 7 8 5 5 5 5 6 3 3 4 8 7 4 3 4 8 13 12 3 9 9 11 12 13 18 21 22
16 16 15 15 14 13 10 9 8 5 5 5 5 5 6 7 8 6 3 4 2 2 2 2 2 1 2 5 7 4 2 3 2 2 9 11 10 7 5 5 3 2 4 4 4 1 3 4 4 6 5 5 7 4 5 10 7 2 3 2 1 1 3 2 4 5 4 6 4 4 5 6 8 2 3 3 7 9 6 7 11 10 12 11 11 18 23 23
16 15 15 14 13 12 11 12 12 8 7 6 6 6 6 6 5 3 1 3 2 2 2 2 3 2 4 6 5 2 2 2 1 3 7 9 9 6 3 3 2 2 4 5 6 4 1 2 4 6 5 6 5 1 4 11 6 1 4 3 4 2 2 1 3 4 3 7 6 6 8 7 9 2 4 2 3 3 4 9 11 9 8 8 11 18 21 20
15 14 14 13 12 12 12 13 13 10 8 7 6 5 5 4 2 2 4 3 2 1 2 3 2 1 4 5 2 0 1 1 3 5 5 4 7 6 1 0 1 2 3 3 6 6 0 2 1 4 7 4 3 3 1 3 2 3 4 1 1 2 1 0 2 2 4 9 6 9 13 9 6 1 2 1 1 0 3 6 8 8 7 9 15 18 18 19
13 13 12 11 11 11 11 12 11 9 7 6 5 4 3 2 0 4 5 1 2 1 2 2 1 1 3 2 0 1 1 0 3 6 4 2 4 4 1 2 2 2 3 3 5 4 2 3 2 4 7 2 5 2 2 3 2 2 2 1 2 2 0 1 1 1 5 7 2 2 5 8 8 2 1 1 2 2 2 2 3 8 9 11 15 17 18 20
12 12 11 10 10 10 10 10 9 7 6 4 3 2 1 1 3 5 2 2 2 1 1 0 0 1 2 1 1 1 0 1 4 4 3 2 3 4 4 4 2 3 4 2 2 1 3 5 3 2 4 6 5 2 2 2 1 3 3 1 2 2 1 2 2 2 6 5 2 3 2 6 10 5 5 10 9 2 2 4 7 11 11 11 15 17 21 23
12 12 11 11 10 9 9 9 9 9 6 4 3 2 2 3 5 3 2 2 1 0 1 1 2 2 2 1 1 2 0 1 4 3 2 2 2 3 5 4 2 2 4 1 2 3 3 2 4 2 3 8 10 5 3 3 4 6 5 4 3 1 1 3 3 3 5 2 2 2 1 5 7 6 8 12 10 5 8 9 11 13 11 13 17 19 22 25
14 14 14 14 13 11 10 9 10 9 7 6 3 2 2 6 3 1 3 5 2 1 0 2 2 1 2 2 2 2 2 2 3 3 2 2 1 2 4 4 4 2 1 1 2 2 5 5 5 6 2 9 13 8 2 3 4 6 4 3 4 4 4 4 4 4 5 3 1 1 2 4 4 1 3 5 7 5 11 12 15 16 14 16 20 21 22 24
15 15 16 17 16 14 13 12 10 9 9 8 4 2 6 6 2 2 5 5 2 2 1 1 3 1 3 3 1 1 4 3 2 2 2 3 3 3 3 3 6 5 2 2 1 2 5 7 3 3 1 9 11 5 3 4 2 2 2 2 4 5 5 4 4 3 2 4 3 3 3 5 5 5 5 7 3 10 17 16 17 17 14 17 20 20 20 22
15 15 17 19 19 17 16 14 12 12 13 9 4 5 8 5 3 4 3 3 2 1 1 1 2 3 5 3 1 1 3 2 1 1 3 3 3 3 3 1 5 9 6 4 2 1 4 5 3 4 1 6 6 3 3 3 1 3 3 4 2 1 3 4 4 1 1 5 5 4 6 7 7 9 5 2 8 14 15 13 15 13 12 15 17 16 17 21
15 15 17 19 17 15 16 14 13 15 15 10 6 7 5 4 8 7 3 3 2 2 1 2 2 3 3 3 2 2 2 1 1 1 2 2 3 4 4 3 4 9 9 5 3 3 5 6 2 5 5 5 3 1 1 1 1 4 4 3 1 1 1 3 3 1 3 7 5 5 10 10 7 6 2 11 12 10 10 10 11 9 10 13 13 12 15 18
15 14 17 19 14 12 15 15 15 19 16 9 9 10 4 4 7 7 5 4 2 2 2 4 3 1 2 4 3 3 3 3 3 2 2 2 3 4 4 3 4 7 6 3 2 2 2 6 4 4 4 1 2 2 2 2 2 1 1 1 0 2 3 3 3 3 6 8 5 8 12 10 7 7 4 5 7 8 9 9 7 8 9 10 10 10 13 17
15 12 13 16 13 15 19 17 20 22 14 7 10 9 5 4 5 6 8 5 2 2 4 5 4 2 3 4 2 1 3 4 2 2 3 3 4 4 3 2 3 2 1 2 3 1 0 5 5 1 0 2 3 3 4 4 2 1 1 2 1 2 4 3 2 2 5 9 8 8 10 8 7 9 8 2 5 6 7 7 7 7 8 8 8 8 11 15
11 7 8 11 12 16 21 21 22 20 11 6 8 5 2 2 3 6 9 7 4 4 4 4 4 5 5 3 3 2 2 3 3 3 3 2 3 3 1 1 1 2 3 2 1 2 1 4 5 1 0 2 4 5 6 6 5 3 4 4 3 2 2 3 3 3 5 8 8 9 9 6 4 4 1 5 6 5 6 7 6 7 8 8 8 9 10 13
11 5 5 10 12 17 26 23 17 12 6 6 8 5 3 2 1 3 6 8 7 4 3 2 4 5 4 2 3 2 1 2 3 4 3 2 4 4 3 5 2 2 2 2 1 2 2 3 5 4 4 6 7 3 4 6 4 4 6 7 7 6 3 5 7 6 6 6 5 7 8 5 1 3 6 8 6 6 7 8 8 7 7 6 7 10 11 11
12 3 4 11 12 21 28 17 9 7 5 6 7 6 5 3 2 2 2 4 5 3 2 2 2 4 4 5 7 5 3 4 4 5 5 4 8 7 4 9 6 2 1 2 1 1 1 1 5 8 7 11 12 2 3 2 2 2 5 5 4 5 6 8 8 5 6 5 3 7 9 4 3 6 7 7 7 8 8 9 10 8 7 6 6 8 11 12
12 5 8 10 12 24 25 9 6 6 3 5 4 5 7 4 1 3 3 2 2 2 2 2 3 5 5 4 6 5 3 4 6 8 6 4 5 3 5 10 7 3 3 3 2 3 2 1 4 7 7 9 12 5 3 2 1 4 6 3 3 5 6 6 5 3 3 4 5 8 8 3 2 4 7 9 10 10 8 9 10 10 8 7 6 8 10 11
11 8 10 11 16 25 18 5 6 7 6 7 6 7 9 6 3 4 3 3 4 2 1 1 2 4 3 0 1 3 2 2 5 5 3 3 2 1 4 7 5 2 1 1 1 2 2 2 3 5 6 6 9 8 3 2 1 2 4 3 4 6 7 8 5 3 4 8 10 10 8 4 1 3 6 9 9 9 8 7 8 9 8 7 7 9 10 11
9 7 8 12 21 26 13 3 4 7 8 10 10 10 10 7 5 6 5 6 7 5 3 3 3 3 3 1 0 2 4 4 4 2 1 2 2 0 2 5 5 2 2 2 1 0 1 2 2 4 7 6 7 7 2 1 2 3 3 4 6 6 6 7 7 7 7 7 10 10 9 5 2 3 3 4 5 6 7 7 7 8 7 7 8 8 9 9
6 4 4 8 16 20 12 4 3 5 6 8 8 8 12 11 5 3 5 7 9 8 8 7 3 2 3 3 4 5 6 6 5 3 3 4 2 0 2 4 5 3 3 3 1 1 1 2 4 7 9 8 9 8 4 3 4 6 6 6 7 8 7 6 7 8 7 6 7 8 8 9 7 5 7 6 4 2 5 7 6 6 6 6 6 7 8 8
3 2 3 4 7 10 8 4 4 3 3 5 5 3 9 13 8 4 5 4 3 5 7 6 5 5 5 5 6 8 8 8 7 6 7 6 3 1 1 2 4 3 3 2 1 1 2 4 7 10 11 11 12 12 9 7 7 9 10 10 10 11 11 10 10 10 9 8 8 8 10 11 10 9 11 10 8 4 2 5 5 5 4 3 2 4 5 5
3 1 4 6 4 3 4 4 4 3 2 4 4 3 5 8 6 5 3 1 1 3 3 4 3 2 3 1 2 3 4 5 6 5 4 3 1 1 1 2 4 6 3 1 1 2 3 7 9 9 11 12 13 12 10 7 7 9 11 12 12 13 14 15 15 14 13 12 11 13 16 16 13 15 16 10 3 1 4 4 3 3 3 2 1 2 3 4
4 2 4 6 3 1 1 2 3 2 4 3 3 4 5 8 9 5 2 2 1 1 2 4 1 4 3 2 1 2 4 4 5 4 0 1 1 1 2 2 2 6 6 3 1 1 3 6 5 4 8 10 10 11 9 8 8 9 11 12 14 16 17 17 17 17 17 17 17 19 22 22 17 15 11 2 6 5 5 4 2 2 4 5 5 5 5 5
4 4 4 4 3 3 3 3 3 1 3 2 3 4 3 7 11 6 2 1 4 3 2 2 1 3 2 3 2 4 4 3 7 6 0 1 2 1 1 3 0 3 4 2 2 2 3 4 2 3 6 8 9 11 11 9 9 10 11 12 16 18 18 17 17 16 16 17 19 20 21 18 10 3 3 6 7 5 4 1 2 4 6 7 8 9 9 8
6 6 5 4 3 3 3 2 2 1 1 2 4 3 1 4 6 2 1 1 2 3 1 2 3 3 3 2 2 4 3 2 3 3 3 2 4 2 1 1 1 3 3 1 1 2 3 4 3 4 6 7 7 11 13 10 9 12 13 15 19 19 16 15 15 14 14 16 17 18 16 10 1 4 5 6 5 3 1 3 4 5 6 9 11 13 13 13
8 7 6 5 2 2 4 3 2 3 2 2 2 1 1 0 1 1 3 2 7 6 6 7 3 2 1 4 5 3 6 6 5 3 2 4 7 7 7 8 7 6 3 1 1 3 3 4 4 5 6 6 8 11 9 6 8 11 11 13 18 18 17 17 16 15 17 16 14 12 8 2 2 3 4 4 2 1 3 4 5 6 8 10 13 16 17 16
Wind_Direction
334 337 339 340 341 343 343 342 337 331 329 321 317 311 310 304 310 312 312 319 321 327 328 329 329 330 331 330 330 329 329 326 321 318 320 359 16 5 340 272 257 251 237 224 223 228 228 222 216 213 208 202 210 210 205 202 183 183 205 243 241 248 234 195 209 210 246 293 264 227 216 242 274 288 296 295 271 265 274 273 268 264 267 270 274 281 285 286
319 323 324 323 324 326 327 325 320 317 313 310 305 300 299 292 294 292 294 297 298 307 309 314 316 318 321 322 325 324 325 324 317 311 291 73 18 4 346 315 270 252 236 226 223 227 232 230 225 217 206 205 220 213 211 204 192 204 229 244 241 248 220 186 222 219 225 273 285 269 248 253 273 288 292 283 273 268 273 275 267 261 271 278 280 285 285 283
305 308 309 309 310 312 311 311 310 309 306 305 302 299 297 293 294 293 293 293 296 301 302 308 309 312 314 316 320 321 326 325 315 301 203 118 9 359 335 314 287 260 242 237 226 225 231 231 231 219 208 213 224 208 210 211 207 216 221 247 249 244 236 213 231 233 240 268 285 274 267 264 269 275 266 266 277 271 261 268 265 255 270 282 288 292 285 281
294 296 298 299 300 301 300 301 299 299 300 299 298 298 295 294 294 293 293 294 295 297 299 302 303 307 309 312 315 318 327 323 311 258 183 268 341 338 320 286 281 273 242 244 233 230 230 231 232 215 211 221 216 210 221 215 206 187 203 248 261 236 251 234 237 245 250 263 271 269 275 270 268 266 244 244 278 271 253 257 266 270 279 284 286 290 285 280
288 290 292 292 295 295 294 293 291 291 290 291 292 291 291 292 293 293 294 295 296 297 299 299 301 303 304 307 309 314 326 326 312 171 200 292 318 314 300 269 259 280 247 244 236 234 230 231 230 212 216 226 196 204 226 211 207 208 221 246 260 230 259 252 242 254 256 258 262 258 266 271 271 259 238 228 245 263 266 265 273 281 287 287 283 286 285 282
285 287 289 290 291 291 290 290 289 288 287 287 287 286 288 289 290 292 292 294 296 297 299 299 300 300 302 304 302 306 314 296 283 264 276 301 303 295 282 258 251 272 274 244 237 234 230 226 221 209 212 227 208 213 228 203 207 241 237 237 251 240 249 262 252 259 261 251 249 250 269 276 268 264 244 221 236 263 276 279 280 284 288 289 286 284 284 283
284 285 287 288 289 289 289 289 288 288 289 288 288 287 287 288 289 290 291 293 293 295 297 296 297 297 299 299 297 297 271 269 288 286 290 297 287 276 259 248 254 270 270 256 247 236 231 222 216 210 210 232 221 217 229 207 205 241 258 239 249 249 249 260 260 260 263 255 256 263 277 275 256 267 262 231 247 268 281 284 284 287 289 289 286 283 284 284
282 283 285 287 287 289 289 290 289 289 290 288 288 287 286 287 287 287 289 289 290 291 291 292 293 293 295 294 296 288 252 276 295 292 287 275 263 265 251 250 262 271 269 266 263 247 235 222 218 213 220 238 227 213 213 223 211 224 252 257 252 257 258 266 269 264 265 262 265 267 268 268 261 267 272 259 263 273 281 286 288 287 287 285 283 284 285 286
280 281 282 284 285 287 288 289 289 289 289 288 288 286 285 285 284 285 285 285 286 286 287 289 289 290 292 291 292 277 265 287 298 288 279 259 264 270 263 264 268 268 265 264 262 248 234 226 227 225 237 249 241 234 194 223 228 213 244 270 272 273 274 276 274 266 264 265 261 253 258 266 268 271 272 268 271 278 279 283 287 285 285 285 286 289 289 290
278 280 281 283 284 284 285 286 287 287 288 287 287 286 286 285 285 285 284 284 283 283 283 283 285 287 287 287 283 267 277 290 291 283 282 274 274 271 268 269 269 267 261 261 258 249 241 242 245 236 246 255 245 239 190 217 253 244 272 289 281 280 282 277 273 265 261 265 250 230 256 266 265 264 269 271 277 283 280 280 286 286 286 289 290 293 293 292
278 279 281 282 283 284 285 286 286 287 287 287 287 287 287 286 287 287 286 286 284 284 283 282 283 282 283 281 265 258 280 285 282 286 284 279 277 271 268 265 264 262 257 259 260 258 252 250 249 234 235 232 230 234 223 237 258 315 319 297 283 281 281 271 265 262 251 261 244 220 251 265 258 217 253 267 275 280 282 283 285 285 287 290 292 293 293 291
276 278 280 281 283 284 285 286 286 287 287 287 287 287 287 287 287 287 287 286 285 284 283 281 281 278 280 277 264 265 281 282 280 284 281 279 276 271 267 260 258 256 254 258 258 256 249 246 240 227 227 220 227 238 245 245 254 308 309 291 291 288 284 270 257 257 234 241 229 194 238 257 234 226 250 265 274 278 283 284 284 285 286 289 290 290 289 287
277 278 279 280 282 283 285 286 287 289 288 288 288 288 287 287 287 287 286 285 284 283 282 280 277 275 274 271 271 277 284 282 280 279 276 275 271 269 265 259 257 253 252 254 252 247 238 240 233 223 229 228 233 250 274 31 29 286 274 277 297 289 284 269 233 253 239 228 179 170 245 257 229 240 256 268 274 279 284 282 283 283 284 286 287 287 287 287
276 277 278 279 280 282 283 286 289 290 290 291 291 290 289 290 289 288 287 286 284 281 280 276 271 269 262 264 276 283 282 281 281 276 273 270 267 266 264 262 260 256 255 253 250 243 231 229 221 218 232 234 244 266 276 6 233 278 277 213 275 274 278 86 134 191 257 215 167 185 262 264 256 266 273 280 279 283 284 282 285 282 282 286 287 288 288 290
269 271 273 273 276 278 281 286 290 292 295 295 295 295 294 294 293 292 290 287 284 280 275 270 265 258 256 268 277 280 281 282 281 277 271 264 262 264 266 265 261 257 253 245 240 236 226 212 207 211 231 236 243 262 271 285 246 255 271 255 226 236 266 291 256 228 252 222 164 195 267 256 250 270 279 288 290 288 280 284 288 285 284 286 287 288 289 292
261 268 271 274 277 279 283 287 292 300 300 300 303 302 300 300 298 296 293 288 284 277 270 266 259 243 245 272 274 275 282 285 284 281 274 265 260 259 263 263 258 249 238 232 228 223 210 188 193 204 219 239 236 242 267 283 262 218 235 263 254 253 275 295 281 246 235 185 181 217 259 272 249 268 280 287 290 287 282 283 284 285 285 284 285 286 287 291
245 254 264 277 280 285 291 292 302 313 311 311 313 312 311 308 304 299 295 292 287 278 265 256 243 234 246 263 269 276 281 284 289 287 281 272 261 257 257 253 245 231 215 213 205 194 184 173 180 198 213 238 213 221 262 267 261 235 215 246 255 256 272 287 288 279 195 175 225 229 242 263 261 269 280 282 284 282 279 280 279 280 283 282 284 285 285 289
220 230 247 275 299 310 307 310 318 325 329 327 325 327 323 313 308 304 300 297 288 274 254 223 189 216 250 250 259 277 285 288 293 291 286 277 267 261 251 241 232 207 186 185 179 172 169 164 178 208 216 220 200 207 233 243 254 267 259 266 276 251 248 263 270 289 296 263 269 261 252 262 265 263 267 273 278 277 272 272 273 274 278 282 283 284 289 299
223 233 253 285 319 324 321 326 326 329 338 336 335 337 331 320 317 306 297 291 271 267 265 210 193 234 273 260 267 282 288 289 290 286 279 272 264 250 228 217 204 179 168 170 173 175 167 149 171 214 221 218 210 207 225 241 259 286 292 279 284 277 262 265 268 272 290 283 279 275 272 278 281 271 266 272 276 275 270 268 271 277 280 279 279 284 301 320
242 250 262 276 293 309 316 322 323 327 330 333 343 346 344 343 332 299 289 295 287 278 276 262 246 255 267 273 278 281 282 282 282 279 272 266 248 217 192 177 174 175 178 174 170 174 179 189 193 210 230 232 223 216 233 256 298 301 280 268 270 277 276 272 277 278 267 279 271 265 276 286 287 283 279 274 272 271 270 271 277 281 277 275 281 299 340 336
241 249 261 270 278 289 296 307 315 322 328 335 349 0 18 9 343 307 315 304 296 288 283 279 267 261 265 270 270 270 273 279 276 269 264 248 200 181 175 164 168 189 181 117 111 136 189 218 212 223 239 248 244 233 247 265 277 268 262 274 271 267 274 270 275 283 279 278 272 262 277 286 289 286 276 269 267 267 270 276 278 273 271 278 319 18 352 335
242 250 261 267 272 281 287 300 308 317 329 336 348 7 18 4 341 329 327 300 295 296 289 280 269 262 263 260 258 260 261 269 270 261 250 215 185 183 172 168 191 206 147 131 133 151 206 230 226 232 239 267 355 241 246 252 256 262 258 268 271 268 279 273 260 274 303 273 285 293 290 289 282 274 273 272 264 261 265 263 262 264 276 310 359 355 335 344
249 256 261 264 269 275 280 291 301 312 327 332 346 3 2 353 345 341 335 279 290 298 285 271 263 261 263 260 259 260 252 248 261 259 245 209 188 196 182 180 206 184 157 190 208 219 230 229 231 239 237 217 245 224 223 258 252 247 247 259 272 268 274 272 242 257 2 267 286 303 294 283 272 259 265 272 249 254 264 258 258 271 316 343 348 354 358 42
249 255 258 262 268 272 272 281 300 307 315 328 341 353 353 348 346 346 335 259 277 289 274 269 263 264 270 270 265 256 240 237 245 245 231 208 192 196 194 195 200 194 207 209 214 236 249 236 179 239 220 220 241 230 220 254 256 242 236 244 263 264 261 266 279 329 308 270 285 313 297 283 278 228 109 263 224 264 270 261 261 38 43 39 43 56 74 81
253 258 265 267 268 273 277 287 307 310 310 325 333 342 351 351 350 351 337 266 263 264 260 269 297 263 263 283 267 225 212 221 218 212 206 199 193 181 184 194 199 226 221 207 218 246 258 269 142 186 181 205 226 235 225 231 260 261 228 227 250 266 272 274 292 323 307 271 58 346 316 301 91 31 337 321 314 280 265 253 86 74 60 63 73 82 85 77
256 256 266 271 270 275 282 292 305 323 327 329 329 338 350 353 353 352 344 273 262 229 228 234 160 181 187 314 191 168 174 195 213 215 201 197 194 187 202 176 179 262 201 176 224 251 259 265 175 206 194 177 204 246 229 207 252 272 240 232 249 263 273 278 297 306 292 293 34 21 306 283 273 258 282 300 272 259 262 257 86 83 68 74 88 91 81 67
259 253 259 267 271 274 278 285 279 294 327 328 329 336 346 354 355 356 346 272 268 127 116 174 167 166 222 198 157 154 168 151 160 204 197 197 194 200 231 192 170 251 131 158 259 223 196 146 89 163 186 183 211 246 214 183 229 268 20 340 263 267 275 278 294 270 277 314 295 183 226 272 285 249 224 246 240 254 274 356 73 87 89 85 86 81 68 57
260 258 261 264 268 270 269 273 273 275 293 304 318 319 332 347 347 353 324 280 300 99 119 147 137 120 136 150 157 145 100 147 148 164 183 193 190 192 239 236 220 190 153 205 254 224 158 175 176 169 175 207 216 223 165 176 218 280 64 33 67 317 306 288 280 270 286 314 284 179 173 263 282 231 165 235 244 266 312 42 63 79 93 90 82 74 62 53
260 259 260 259 262 265 258 259 265 267 274 288 303 308 328 339 337 357 262 259 339 87 152 171 155 130 122 143 165 151 97 120 92 141 167 186 194 195 249 244 204 184 183 217 253 264 140 179 205 176 191 229 214 152 157 183 205 149 136 107 95 103 53 65 282 295 295 286 265 175 170 254 288 227 153 215 264 297 36 71 79 82 80 80 77 67 55 51
263 261 259 255 254 255 253 255 259 263 269 282 297 312 331 338 326 242 221 230 356 80 169 182 193 159 148 159 173 169 166 66 99 136 149 172 200 210 264 229 145 186 211 239 255 258 125 78 355 212 231 244 110 70 10 186 152 124 154 136 121 159 93 125 267 329 285 271 248 179 183 223 278 307 157 190 321 197 92 84 103 102 72 68 68 54 47 56
265 261 256 252 248 248 250 254 257 260 263 270 294 314 327 0 93 220 229 272 345 222 154 158 196 120 148 171 198 145 164 185 141 154 158 156 185 194 229 219 170 196 229 238 243 242 176 185 226 235 237 203 108 104 29 37 55 156 193 299 281 236 122 224 188 122 255 266 282 160 191 221 237 252 59 332 313 234 204 349 84 99 76 64 60 52 58 66
265 262 257 252 248 247 248 251 252 253 251 256 282 333 31 272 231 213 220 2 317 229 157 177 347 106 130 99 246 157 102 217 176 173 169 167 188 188 211 215 178 251 261 230 238 244 193 201 199 269 237 194 179 176 101 81 153 205 206 189 285 308 350 264 232 204 246 261 5 5 331 242 241 254 269 276 294 306 103 23 48 80 78 68 64 63 66 64
266 265 265 259 253 251 246 245 245 242 237 239 255 64 90 238 238 188 166 239 245 100 79 94 71 86 137 220 239 156 339 220 171 184 169 152 221 221 225 217 152 271 275 240 308 292 260 216 150 184 243 190 189 200 199 192 176 185 189 169 180 210 241 254 247 251 262 260 54 15 261 254 267 262 244 260 290 1 57 50 65 81 80 73 72 70 66 62
266 267 269 266 261 257 250 245 241 236 225 215 200 89 193 235 239 109 196 221 239 331 23 98 94 117 175 241 274 163 242 265 142 170 191 155 215 245 235 214 172 195 256 230 303 263 267 284 176 177 174 164 188 214 196 118 163 186 180 170 196 202 219 246 236 241 268 272 140 111 212 257 284 312 182 257 296 28 63 67 81 84 77 74 74 70 66 63
266 266 266 264 261 258 257 250 234 221 211 194 157 169 230 233 189 165 214 223 259 306 295 91 114 228 241 225 279 207 227 248 108 133 198 194 223 236 234 209 176 174 164 224 267 163 246 267 178 136 104 162 184 204 124 115 171 190 123 174 230 216 202 236 251 233 305 307 254 199 241 263 279 296 280 271 284 91 89 81 81 79 72 71 69 64 62 63
263 263 264 264 261 256 251 240 219 209 203 183 168 223 227 227 201 192 194 191 180 133 300 266 174 244 263 225 194 190 199 219 138 180 204 214 255 237 224 245 178 177 179 196 226 196 248 264 115 87 278 201 193 166 155 193 185 137 170 200 226 205 184 236 267 148 91 278 253 226 264 273 281 290 285 136 101 98 95 83 81 81 73 69 62 56 59 61
264 260 262 262 261 255 244 229 207 203 197 182 206 232 218 219 221 213 167 137 145 112 116 261 221 223 260 245 212 171 170 215 167 193 211 211 257 215 202 253 197 191 207 216 237 240 252 271 204 159 212 230 225 218 239 281 129 138 194 212 107 30 223 232 255 161 195 244 240 220 251 270 285 288 121 114 110 104 97 89 86 82 74 70 62 54 57 60
269 260 262 265 262 245 232 219 201 198 192 188 225 235 226 217 213 205 183 154 114 96 163 233 240 219 240 252 254 142 159 204 159 164 223 213 228 179 170 249 201 194 224 222 236 267 261 272 256 189 206 170 118 220 233 223 210 155 301 313 69 246 236 200 212 233 232 244 241 213 233 253 254 247 228 147 132 116 101 92 78 63 62 66 63 55 55 60
272 262 264 271 260 228 214 201 193 194 190 198 227 229 228 231 216 204 199 181 141 166 214 234 230 241 241 234 250 157 182 209 171 189 221 214 228 187 151 248 203 181 266 189 221 284 75 257 267 81 120 102 116 211 210 188 196 29 323 290 289 259 254 224 202 224 237 249 254 233 230 234 229 245 262 234 120 109 102 96 83 71 67 66 69 62 57 60
254 239 244 247 234 209 192 182 187 194 195 213 225 220 211 231 225 211 209 206 196 194 226 238 211 233 250 228 226 239 224 219 205 221 227 225 261 239 101 335 217 80 44 64 266 305 15 259 263 336 34 190 190 207 205 201 195 188 220 230 216 213 281 281 251 213 237 253 255 249 243 231 238 271 231 114 93 81 96 101 95 85 79 73 74 75 69 66
209 198 215 209 205 186 173 174 190 200 207 228 233 236 236 243 237 208 204 207 218 224 228 220 213 236 263 265 242 227 192 225 220 231 240 234 249 252 32 16 2 88 72 43 35 251 267 260 252 256 247 243 244 206 191 232 225 203 220 218 215 208 201 250 243 211 225 244 237 250 252 226 225 46 100 108 88 83 96 102 102 97 94 88 81 80 77 70
185 171 187 191 192 175 167 173 203 202 210 229 228 227 226 241 239 201 179 195 216 244 250 218 228 241 252 263 264 261 248 248 246 242 241 235 239 246 358 9 6 50 304 302 1 36 335 258 248 253 244 254 269 276 121 230 273 271 248 228 228 221 203 231 246 226 229 238 229 254 256 234 80 75 98 105 107 114 116 118 124 125 126 124 109 87 77 68
175 160 160 172 182 173 168 183 216 195 222 234 225 224 216 221 211 164 145 172 200 234 245 238 232 234 243 257 261 260 257 254 248 246 250 257 253 264 360 3 3 14 344 302 310 18 12 255 255 261 252 261 269 254 137 123 205 258 256 239 242 247 241 255 272 290 268 244 241 252 248 235 64 88 113 117 120 122 124 132 135 135 137 138 125 94 74 64
168 159 158 164 176 176 176 203 206 202 228 225 232 239 227 231 231 204 181 190 201 182 174 253 246 235 245 277 231 237 241 254 252 249 253 269 268 67 22 10 18 24 359 277 282 338 314 279 299 287 274 268 263 252 218 100 75 281 282 293 285 277 280 278 267 266 252 229 234 250 253 244 191 122 121 123 127 124 122 131 132 133 138 132 110 88 71 59
156 164 174 175 179 185 198 248 206 209 219 221 236 240 237 246 232 221 223 222 219 200 195 250 239 221 228 146 100 238 219 224 250 256 206 240 253 249 12 20 46 80 157 159 140 16 279 269 287 284 276 272 275 275 258 96 7 316 291 301 316 315 303 291 272 258 250 228 228 247 263 264 203 141 142 140 135 132 137 139 128 123 122 108 93 77 63 55
151 173 188 185 188 199 222 256 219 219 214 219 234 235 238 246 237 207 221 238 239 225 233 249 225 198 230 222 240 258 242 224 219 234 255 255 254 309 36 41 54 84 154 162 159 193 223 234 224 246 263 270 279 282 275 279 283 278 277 280 289 290 286 291 280 263 275 288 264 263 282 288 281 275 274 275 280 241 154 142 132 127 121 106 87 62 50 43
153 189 166 168 197 211 227 233 213 219 212 211 219 240 243 241 245 241 215 225 229 206 228 243 209 207 227 221 233 249 252 239 219 228 257 261 246 273 43 62 43 54 138 146 88 159 222 258 241 246 257 262 272 278 279 279 269 270 279 275 270 272 269 265 258 261 285 296 276 274 283 280 278 280 278 279 283 276 142 131 141 142 141 128 74 43 33 22
158 171 155 158 185 217 220 211 193 198 219 208 213 268 253 228 227 226 205 170 114 165 215 229 199 220 255 221 203 237 259 256 230 223 252 272 279 333 34 99 65 53 79 105 53 127 236 266 259 265 274 272 277 284 284 280 273 273 275 271 269 269 263 259 259 266 275 272 270 283 283 277 276 276 276 284 308 100 113 123 146 152 174 205 264 316 328 343
150 144 158 166 165 95 135 123 109 171 216 200 207 254 246 233 234 221 104 34 287 170 239 234 163 37 10 38 86 253 281 286 266 253 267 343 301 317 302 258 91 57 47 20 326 192 236 262 264 289 293 284 284 289 289 286 283 277 270 270 272 268 264 267 270 270 267 263 267 275 274 272 273 275 279 338 79 99 107 114 158 217 239 242 253 265 274 299
161 158 153 150 130 91 93 83 78 143 221 207 225 244 228 238 247 239 91 312 248 251 284 251 157 83 73 77 112 248 271 289 278 276 110 162 238 216 296 263 153 30 9 348 289 294 282 276 311 354 306 285 284 289 290 288 284 279 273 268 267 265 266 269 271 269 265 263 265 265 264 266 272 305 65 88 92 100 112 139 237 251 257 256 260 265 265 272
176 171 151 133 123 117 119 98 94 156 217 210 224 246 243 247 257 250 88 28 290 270 243 121 118 119 134 156 211 238 230 182 220 224 151 195 261 288 321 273 359 340 319 253 231 303 300 289 325 333 290 272 277 284 287 292 287 274 264 257 256 257 258 258 256 257 259 263 264 263 264 267 294 77 93 104 92 89 179 263 264 264 268 265 265 268 268 271
185 188 174 153 129 129 137 126 136 182 208 200 202 204 159 261 13 132 197 86 67 66 79 90 76 34 235 254 271 241 201 185 185 203 229 268 273 266 252 250 258 262 250 254 272 248 249 266 281 285 275 269 273 279 292 314 290 266 250 246 249 250 252 254 253 252 253 257 264 267 270 282 92 98 113 119 103 282 278 280 274 273 272 265 269 275 275 277